AMAZONAS 3

Last updated on Wed Sep 17 2025 00:02:48 GMT+0000 (Coordinated Universal Time)

1 39078U 13006A 25259.50027166 -.00000302 00000+0 00000+0 0 9991 2 39078 0.0461 239.2397 0005483 325.4962 270.0420 1.00269388 42172
UTC large
Height (km)
Speed (km/s)
/
Latitude / Longitude
Inclination (degrees)
Orbital Period (minutes)
Azimuth
Elevation
Range (km)
Doppler Factor

Next 0 passes for location: London (51.5072 / 0.1276)

Sorry there are no passes over London.